User: anonymous   Login
Location: Feydey
(46.3431°N, 7.0106°E)
Time: 02:10:36
(UTC+00:00)
Language:

Cosmos 2058 Rocket - Orbit

View from above orbital plane
View from above orbital plane
View from above satellite
View from above satellite

Ground track
Ground track

The orbit data is extracted from the following two-line orbital elements,

1 20466U 90010B   21264.53796335  .00000095  00000-0  91169-5 0  9999
2 20466  82.5066 355.2546 0018968 262.1760  97.7301 14.81438059686991
Epoch (UTC): 21 September 2021 12:54:40
Eccentricity: 0.0018968
inclination: 82.5066°
perigee height: 611 km
apogee height: 638 km
right ascension of ascending node: 355.2546°
argument of perigee: 262.1760°
revolutions per day: 14.81438059
mean anomaly at epoch: 97.7301°
orbit number at epoch: 68699

The dashed part of the orbit path shows where the satellite is in the earth's shadow,  

DLR